Temperature
1 2 2 1 1 1 0 -0 -1 -0 -1 -2 -2 -2 -2 -2 -3 -3 -3 -4 -4 -4 -4 -4 -4 -3 -3 -2 -2 -1 -1 -0 0 1 1 1 1 2 2 2 2 2 2 3
-0 1 1 1 1 0 0 -0 -1 -1 -2 -2 -2 -2 -3 -3 -3 -4 -4 -5 -5 -5 -5 -5 -4 -4 -3 -3 -2 -2 -1 -1 -0 -0 0 1 1 1 1 1 2 2 2 2
-1 1 0 -1 -1 -1 -1 -2 -2 -3 -3 -3 -3 -3 -4 -4 -4 -5 -5 -5 -6 -6 -5 -5 -5 -4 -4 -3 -3 -3 -2 -2 -1 -1 -0 -0 0 0 1 1 1 1 1 1
-1 -1 -2 -2 -1 -1 -2 -3 -3 -3 -3 -3 -4 -4 -4 -4 -5 -5 -6 -6 -6 -6 -6 -6 -5 -5 -4 -4 -3 -3 -3 -2 -2 -1 -1 -1 -1 -1 -0 -0 0 0 1 1
-2 -2 -2 -2 -2 -2 -3 -4 -4 -4 -4 -4 -4 -4 -4 -5 -6 -6 -6 -7 -7 -7 -6 -6 -5 -5 -5 -4 -4 -3 -3 -3 -2 -2 -2 -2 -1 -1 -1 -1 -0 -0 0 0
-2 -3 -2 -3 -3 -2 -3 -5 -4 -4 -5 -5 -5 -6 -6 -6 -6 -7 -7 -7 -7 -7 -6 -6 -6 -6 -5 -5 -4 -4 -4 -3 -3 -3 -3 -2 -2 -2 -1 -1 -1 -0 -0 -0
-3 -3 -3 -4 -3 -3 -4 -5 -5 -5 -5 -6 -6 -7 -6 -7 -7 -7 -7 -7 -7 -7 -6 -6 -6 -6 -6 -5 -5 -5 -4 -4 -4 -3 -3 -3 -2 -2 -2 -1 -1 -1 -1 -1
-4 -4 -4 -4 -4 -5 -6 -5 -5 -6 -6 -7 -7 -7 -7 -7 -8 -8 -8 -8 -8 -7 -7 -7 -7 -6 -6 -6 -5 -5 -5 -5 -4 -4 -3 -3 -3 -3 -2 -2 -2 -1 -1 -1
-4 -5 -4 -4 -5 -5 -5 -6 -6 -7 -7 -7 -8 -8 -8 -8 -8 -8 -8 -8 -8 -8 -7 -7 -7 -7 -7 -6 -6 -5 -5 -5 -5 -4 -4 -4 -3 -3 -3 -3 -3 -2 -2 -2
-5 -5 -4 -4 -5 -5 -6 -6 -7 -7 -7 -8 -8 -8 -9 -9 -9 -9 -9 -9 -9 -8 -8 -8 -7 -7 -7 -7 -6 -6 -6 -5 -5 -5 -5 -4 -4 -4 -4 -3 -3 -3 -3 -3
-6 -5 -5 -5 -5 -6 -6 -7 -7 -8 -8 -8 -9 -9 -9 -9 -9 -10 -10 -9 -9 -9 -9 -8 -8 -7 -7 -7 -7 -7 -6 -6 -6 -5 -5 -5 -5 -4 -4 -4 -4 -4 -3 -3
-6 -6 -6 -6 -6 -7 -7 -8 -8 -8 -9 -9 -9 -9 -10 -10 -10 -10 -10 -9 -9 -9 -9 -8 -8 -8 -8 -8 -7 -7 -7 -7 -6 -6 -6 -5 -5 -5 -4 -4 -4 -4 -4 -4
-6 -6 -6 -7 -7 -7 -8 -8 -8 -9 -9 -9 -9 -10 -10 -10 -10 -10 -10 -10 -10 -9 -9 -9 -9 -8 -8 -8 -8 -8 -8 -7 -7 -7 -6 -6 -6 -5 -5 -5 -5 -5 -5 -5
-7 -7 -7 -7 -8 -8 -8 -8 -9 -9 -9 -10 -10 -10 -10 -10 -10 -10 -10 -10 -10 -10 -9 -9 -9 -9 -8 -8 -8 -8 -8 -8 -7 -7 -7 -6 -6 -6 -6 -6 -5 -5 -5 -5
-7 -7 -8 -8 -8 -8 -9 -9 -9 -10 -10 -10 -10 -10 -10 -10 -10 -10 -10 -10 -10 -10 -10 -9 -9 -9 -9 -9 -9 -8 -8 -8 -8 -7 -7 -7 -7 -7 -6 -6 -6 -6 -6 -5
-8 -8 -8 -8 -9 -9 -9 -9 -10 -10 -10 -10 -10 -10 -11 -11 -11 -10 -10 -10 -11 -10 -10 -10 -10 -9 -9 -9 -9 -9 -8 -8 -8 -8 -7 -7 -7 -7 -7 -7 -7 -7 -7 -6
-8 -9 -9 -9 -9 -9 -10 -10 -10 -10 -11 -11 -11 -11 -11 -11 -11 -11 -11 -11 -11 -11 -11 -10 -10 -10 -10 -10 -9 -9 -9 -9 -8 -8 -8 -8 -8 -8 -8 -7 -7 -7 -7 -7
-8 -9 -9 -9 -10 -10 -10 -10 -10 -11 -11 -11 -11 -11 -11 -11 -11 -11 -11 -11 -11 -11 -11 -11 -11 -10 -10 -10 -10 -10 -9 -9 -9 -9 -8 -8 -8 -8 -8 -8 -8 -7 -7 -7
-9 -9 -9 -10 -10 -10 -10 -10 -11 -11 -11 -11 -11 -11 -11 -12 -12 -12 -12 -11 -11 -11 -11 -11 -11 -11 -10 -10 -10 -10 -10 -10 -9 -9 -9 -9 -9 -9 -9 -8 -8 -8 -8 -8
-9 -9 -10 -10 -10 -10 -10 -11 -11 -11 -11 -11 -11 -12 -12 -12 -12 -12 -12 -12 -12 -12 -12 -12 -11 -11 -11 -11 -11 -11 -10 -10 -10 -10 -9 -9 -9 -9 -9 -9 -9 -8 -8 -8
-9 -10 -10 -10 -10 -10 -11 -11 -11 -11 -11 -12 -12 -12 -12 -12 -12 -12 -12 -12 -12 -12 -12 -12 -12 -12 -11 -11 -11 -11 -11 -11 -10 -10 -10 -10 -10 -10 -9 -9 -9 -9 -9 -9
-10 -10 -10 -10 -11 -11 -11 -11 -11 -12 -12 -12 -12 -12 -12 -12 -12 -12 -12 -13 -12 -12 -12 -12 -12 -12 -12 -12 -12 -11 -11 -11 -11 -11 -10 -10 -10 -10 -10 -10 -10 -9 -9 -9
-10 -10 -11 -11 -11 -11 -11 -12 -12 -12 -12 -12 -12 -13 -13 -13 -13 -13 -13 -13 -13 -13 -13 -13 -13 -12 -12 -12 -12 -12 -12 -12 -11 -11 -11 -11 -11 -11 -11 -11 -10 -10 -10 -9
-10 -11 -11 -11 -11 -11 -12 -12 -12 -12 -12 -12 -13 -13 -13 -13 -13 -13 -13 -13 -13 -13 -13 -13 -13 -13 -13 -12 -12 -12 -12 -12 -12 -12 -12 -12 -11 -11 -11 -11 -11 -10 -10 -10
-11 -11 -11 -12 -12 -12 -12 -12 -12 -12 -13 -13 -13 -13 -13 -13 -14 -13 -13 -13 -13 -13 -13 -13 -13 -13 -13 -13 -13 -13 -12 -12 -12 -12 -12 -12 -12 -12 -11 -11 -11 -11 -11 -11
-12 -12 -12 -12 -12 -13 -13 -13 -13 -13 -13 -13 -13 -13 -13 -14 -14 -14 -14 -14 -14 -14 -14 -13 -13 -13 -13 -13 -13 -13 -13 -13 -12 -12 -12 -12 -12 -12 -12 -11 -11 -11 -11 -11
-12 -12 -12 -13 -13 -13 -13 -13 -14 -14 -14 -14 -14 -14 -14 -14 -14 -14 -14 -14 -14 -14 -14 -14 -14 -14 -13 -13 -13 -13 -13 -13 -13 -13 -13 -12 -12 -12 -12 -12 -12 -12 -11 -11
Wind_Speed
7 8 6 6 5 4 3 4 5 6 6 6 7 8 9 10 11 11 12 13 13 12 12 12 11 10 9 9 8 7 6 5 5 5 4 4 3 3 1 1 2 1 1 1
6 7 6 6 5 4 5 5 6 7 5 5 7 7 9 11 11 12 12 13 14 13 13 13 12 11 10 9 8 7 6 5 5 5 4 3 3 3 2 1 1 1 1 1
4 5 6 4 2 2 1 2 3 4 4 6 8 10 10 10 10 11 11 13 14 13 12 12 12 12 10 10 8 7 6 5 5 5 4 4 4 3 3 2 2 1 1 1
4 4 4 1 3 3 2 2 3 3 6 7 8 9 8 7 9 11 12 13 13 12 12 12 11 11 11 10 8 7 6 5 5 5 5 4 4 3 3 3 2 2 2 2
3 4 4 1 2 3 2 2 4 4 6 8 9 8 4 8 10 10 11 11 11 11 12 12 11 11 11 10 8 7 7 6 5 5 5 5 4 4 3 3 3 2 2 2
3 4 4 1 3 4 2 1 5 6 6 8 9 7 6 10 12 12 11 11 11 12 11 11 11 10 9 9 7 7 7 7 5 5 5 5 5 4 4 3 3 2 2 2
5 4 2 2 4 4 1 3 5 5 6 7 6 6 9 11 11 11 11 12 12 12 10 10 10 10 9 9 8 8 8 7 6 5 5 4 4 4 3 3 2 2 2 1
3 4 3 3 3 2 2 3 4 5 6 7 8 9 10 11 12 12 12 12 12 11 10 10 9 9 9 9 9 8 7 7 6 5 5 4 4 3 3 2 2 2 1 1
2 3 1 1 1 0 1 3 5 5 6 7 8 10 11 11 11 11 11 11 11 11 11 10 9 9 9 10 9 8 7 7 6 6 5 4 3 3 3 2 2 2 1 1
3 3 1 1 1 2 3 4 5 6 6 7 9 10 11 11 11 11 10 11 10 11 11 11 10 9 9 9 9 8 7 6 6 5 5 4 3 3 2 2 1 1 2 2
4 3 2 1 2 3 4 5 6 6 6 7 9 10 9 10 10 10 11 10 10 10 11 11 11 10 10 9 9 8 7 6 6 5 4 3 3 3 3 2 2 2 2 2
3 1 1 3 3 3 4 5 6 6 8 7 8 9 9 9 9 9 10 10 10 11 11 11 11 11 10 9 9 8 7 6 5 4 4 3 3 4 5 4 5 4 4 3
2 2 2 4 3 3 4 5 6 6 7 8 8 8 9 9 9 9 10 10 11 11 11 10 10 10 10 9 9 8 7 7 5 5 4 4 3 3 3 5 5 5 4 4
1 2 3 3 4 4 4 5 5 6 7 7 7 8 8 9 9 10 10 10 11 11 10 10 10 10 10 9 8 8 7 7 6 5 4 4 3 3 3 3 3 4 4 5
2 2 4 4 4 4 4 5 6 7 7 7 7 8 9 10 10 10 10 10 10 10 10 10 10 10 9 9 8 8 7 5 5 4 4 3 3 3 3 3 3 3 3 4
3 3 4 4 5 5 5 6 7 7 7 8 8 9 9 9 9 9 9 9 9 10 10 10 10 10 9 9 8 7 6 9 8 5 4 3 3 3 2 2 2 2 3 3
2 4 4 5 6 6 5 5 6 7 7 8 9 9 9 9 10 9 9 9 9 9 10 10 10 10 9 8 8 6 5 7 9 6 4 3 3 3 2 2 2 2 2 3
3 4 4 4 5 6 6 6 6 6 7 7 8 8 8 9 10 10 10 10 10 9 9 9 10 10 9 8 7 6 6 5 5 4 4 3 3 3 3 2 2 2 2 3
3 3 4 4 4 4 5 6 6 6 7 7 7 8 8 9 9 9 9 9 10 10 11 10 15 11 9 9 9 6 6 5 5 5 4 4 4 3 3 3 2 2 2 2
3 3 4 4 4 4 5 5 6 6 6 6 7 8 8 8 8 9 9 8 7 7 10 11 11 9 8 8 10 5 5 5 5 4 4 3 3 3 3 3 2 2 2 2
4 4 4 4 5 5 5 5 5 6 6 6 6 7 8 8 8 8 8 8 8 9 10 13 9 8 8 9 9 5 5 5 5 4 4 3 3 3 3 3 3 2 2 2
3 4 4 4 4 5 5 4 4 5 6 6 7 7 8 8 8 8 7 6 8 13 10 7 7 10 12 11 5 5 5 5 5 4 3 3 3 3 3 3 2 2 2 2
3 3 4 4 5 5 5 4 4 5 5 6 7 7 7 7 6 7 8 7 7 12 10 7 11 15 15 8 5 5 5 5 5 4 4 3 3 3 3 3 2 2 2 2
3 3 4 4 4 4 5 5 5 4 5 5 6 6 6 6 6 5 5 11 14 14 8 11 16 15 13 6 5 4 4 5 4 4 4 4 3 3 3 3 3 3 2 2
3 3 4 4 4 4 5 5 5 5 5 5 6 5 4 4 5 6 6 7 12 12 8 11 15 15 9 6 5 5 4 4 4 4 3 3 3 3 3 3 3 3 3 2
3 3 3 3 3 4 4 4 4 4 5 6 6 5 4 4 5 6 5 7 8 11 8 6 7 9 6 6 6 5 5 5 5 5 4 4 4 3 3 3 4 3 3 3
3 3 3 3 3 3 3 3 4 5 5 6 7 6 6 5 5 6 6 6 6 6 6 6 6 6 6 6 6 5 5 4 4 4 4 4 3 3 3 4 3 4 3 3
Wind_Direction
284 293 299 296 301 302 274 269 271 294 306 337 354 352 350 351 350 353 354 353 352 347 343 341 340 338 335 332 334 334 334 335 330 329 335 333 329 320 317 310 302 285 263 255
280 269 273 281 294 295 288 286 285 299 310 356 350 351 351 350 350 350 349 348 345 342 342 339 335 333 332 329 327 328 326 325 327 329 328 327 321 319 321 313 299 293 262 254
280 303 304 279 319 297 289 323 312 302 321 346 345 347 344 340 347 347 345 343 340 337 334 332 330 327 326 323 323 324 322 323 326 326 325 325 325 327 325 317 309 295 285 275
285 307 262 199 55 45 41 5 9 351 346 347 339 328 328 349 353 346 342 337 333 331 330 329 329 328 324 323 322 324 325 325 324 325 322 322 321 319 319 316 298 280 277 272
283 280 267 148 40 19 355 330 20 8 349 343 339 324 338 6 355 339 332 329 327 326 324 325 327 327 325 326 328 328 324 322 321 320 318 318 315 310 311 308 301 283 266 259
273 276 275 4 13 347 339 275 18 11 349 340 342 335 321 341 338 333 331 330 327 326 324 325 326 327 326 327 329 325 322 318 314 313 310 306 305 307 312 304 285 281 279 273
259 260 266 359 338 343 332 288 344 351 340 333 326 301 305 321 325 326 327 328 329 327 326 325 329 331 329 329 327 321 321 322 314 311 307 304 306 308 307 300 290 277 274 285
251 254 255 15 29 44 264 321 339 339 336 325 315 312 315 318 322 326 328 330 332 330 329 331 335 334 330 327 324 325 323 323 321 318 309 308 304 304 304 300 294 286 278 295
241 242 255 84 87 1 360 337 338 332 324 319 315 313 316 318 321 323 326 328 330 330 328 331 334 334 327 324 325 325 323 323 323 321 319 317 308 301 297 286 278 285 285 281
276 262 281 311 37 17 359 335 324 321 321 322 314 313 315 318 319 322 324 326 328 330 330 330 331 329 325 324 326 323 321 321 324 320 319 322 313 305 296 283 280 288 290 285
259 280 315 290 3 351 338 331 329 329 324 319 315 314 315 316 317 320 321 322 324 326 324 325 328 326 327 328 328 325 320 320 322 320 316 318 319 308 303 289 272 276 268 266
251 281 269 287 315 329 326 326 325 321 317 319 316 312 314 312 313 315 317 320 322 322 322 322 324 325 326 326 326 324 322 322 321 318 319 320 322 329 329 327 328 324 317 307
247 316 294 285 305 330 322 315 315 313 309 310 312 311 312 312 314 316 317 320 320 319 318 318 321 322 325 327 326 324 321 320 318 318 317 317 319 323 332 339 342 342 339 335
252 296 288 291 301 314 313 312 311 309 310 312 316 317 316 314 315 316 317 317 316 317 317 318 320 321 323 325 325 325 321 318 317 314 316 317 318 319 321 329 337 343 345 348
263 270 271 294 304 311 317 319 317 314 317 319 319 318 317 317 315 313 313 316 317 318 320 322 322 321 324 326 327 325 322 318 314 310 312 316 319 320 324 327 332 338 345 346
297 288 278 285 292 301 311 313 310 310 315 315 317 317 315 314 312 312 315 319 321 322 322 322 321 321 326 329 326 321 318 318 319 314 311 313 315 315 318 324 330 335 335 331
281 287 289 295 297 301 301 301 300 303 308 311 312 314 317 318 319 320 322 323 319 317 318 320 320 325 328 328 325 320 317 318 318 313 312 313 316 316 317 318 319 322 324 326
254 269 275 279 286 294 299 303 303 304 304 305 311 314 317 319 319 319 321 323 324 324 326 326 326 327 327 327 325 322 319 316 319 315 315 320 324 324 324 318 318 321 330 341
287 286 285 285 285 286 290 296 300 302 305 309 311 311 311 312 313 316 322 326 328 328 330 331 333 334 328 328 328 323 325 324 324 322 320 321 324 328 326 324 324 327 333 342
292 293 292 292 294 292 293 296 301 304 306 310 311 312 314 317 320 322 323 321 322 321 322 329 333 332 329 327 328 327 329 330 328 326 327 328 328 329 328 328 329 330 336 343
292 291 292 294 295 294 292 295 299 302 307 311 311 310 312 316 320 321 322 320 323 327 330 332 336 333 333 333 335 339 339 338 335 332 331 330 327 327 329 332 331 330 334 342
289 289 290 293 295 298 301 301 299 302 307 310 310 312 316 319 322 320 314 311 320 328 333 328 330 333 336 336 340 343 341 339 335 334 336 334 330 326 325 326 327 328 332 336
291 291 293 293 293 297 303 302 297 298 301 304 308 310 311 310 313 315 316 321 325 328 332 328 332 335 337 342 343 342 341 338 336 337 336 334 333 332 331 329 327 329 331 329
297 297 297 299 302 302 303 304 303 301 296 296 300 301 303 309 310 304 302 318 328 328 330 331 336 339 342 348 343 342 340 338 338 340 342 339 336 336 335 333 331 328 327 326
299 297 297 301 300 296 298 306 308 306 305 305 305 305 303 298 300 309 313 318 324 328 328 331 336 340 344 339 340 337 336 335 335 339 343 342 336 331 329 330 332 329 327 323
299 294 289 285 285 291 301 307 309 311 314 314 315 315 313 310 306 309 312 316 319 325 329 327 329 332 335 335 336 336 336 335 338 345 345 342 341 336 330 329 326 322 317 317
305 304 305 308 309 310 310 308 308 312 315 314 314 318 319 319 318 318 318 319 321 323 324 325 327 329 330 332 332 333 333 333 334 335 335 335 334 331 327 323 320 318 317 316
Height
1521 1518 1517 1517 1516 1516 1518 1518 1520 1515 1515 1516 1515 1513 1511 1508 1504 1500 1497 1494 1490 1487 1483 1479 1475 1472 1469 1466 1464 1462 1460 1459 1458 1458 1458 1459 1459 1460 1460 1461 1462 1463 1464 1465
1522 1516 1515 1515 1515 1515 1515 1516 1516 1515 1516 1517 1516 1513 1511 1508 1504 1501 1498 1494 1491 1487 1482 1478 1474 1471 1468 1465 1462 1460 1458 1457 1456 1456 1456 1456 1457 1457 1457 1458 1459 1459 1460 1461
1522 1515 1515 1517 1517 1516 1517 1517 1518 1519 1520 1517 1515 1513 1511 1508 1505 1502 1498 1494 1490 1486 1482 1477 1473 1469 1466 1463 1461 1458 1456 1455 1454 1454 1453 1453 1454 1454 1454 1454 1455 1456 1457 1458
1524 1522 1526 1523 1517 1516 1518 1519 1519 1519 1519 1517 1516 1513 1511 1508 1505 1501 1498 1493 1489 1484 1479 1475 1471 1467 1464 1461 1458 1456 1454 1453 1452 1451 1451 1451 1451 1451 1451 1451 1452 1453 1453 1455
1527 1524 1519 1520 1518 1519 1520 1521 1521 1520 1519 1517 1515 1511 1508 1507 1504 1501 1497 1492 1488 1483 1478 1473 1469 1465 1461 1459 1456 1454 1452 1451 1450 1449 1448 1448 1448 1448 1449 1449 1449 1450 1451 1451
1528 1528 1523 1524 1521 1519 1520 1523 1521 1520 1519 1517 1514 1513 1509 1505 1502 1498 1494 1490 1485 1479 1475 1470 1466 1463 1459 1456 1454 1452 1450 1449 1448 1447 1446 1446 1446 1446 1446 1446 1446 1447 1448 1448
1530 1527 1524 1524 1521 1520 1526 1527 1522 1520 1519 1518 1516 1514 1509 1504 1500 1496 1491 1486 1481 1476 1472 1468 1464 1461 1457 1455 1452 1450 1448 1446 1445 1444 1444 1443 1443 1443 1443 1443 1444 1444 1445 1445
1528 1528 1529 1524 1521 1524 1526 1523 1521 1520 1518 1516 1513 1510 1506 1502 1498 1493 1488 1483 1478 1473 1469 1466 1462 1459 1455 1453 1451 1449 1446 1444 1443 1442 1441 1441 1441 1441 1441 1441 1441 1441 1441 1442
1528 1529 1524 1523 1522 1523 1522 1521 1520 1518 1516 1514 1510 1507 1503 1499 1495 1490 1486 1481 1476 1472 1468 1464 1461 1458 1454 1452 1449 1447 1444 1442 1440 1440 1439 1439 1438 1438 1438 1438 1438 1438 1438 1438
1525 1522 1522 1522 1521 1521 1520 1519 1518 1516 1514 1511 1508 1504 1500 1496 1492 1488 1483 1479 1474 1470 1466 1462 1459 1456 1453 1450 1448 1445 1442 1440 1439 1438 1437 1436 1436 1436 1435 1435 1435 1435 1435 1436
1523 1521 1521 1520 1520 1520 1518 1517 1515 1513 1511 1508 1505 1501 1498 1493 1489 1485 1481 1477 1473 1468 1464 1461 1457 1454 1451 1448 1446 1443 1440 1438 1437 1435 1434 1434 1433 1433 1433 1433 1433 1433 1433 1433
1522 1521 1521 1519 1518 1517 1516 1514 1512 1510 1507 1505 1502 1498 1494 1490 1487 1483 1478 1474 1470 1466 1462 1458 1455 1451 1448 1446 1443 1440 1438 1436 1434 1433 1432 1431 1431 1430 1430 1431 1431 1431 1431 1431
1519 1518 1518 1517 1516 1515 1513 1511 1509 1507 1504 1501 1498 1495 1491 1487 1484 1480 1476 1472 1468 1464 1460 1456 1452 1449 1446 1443 1441 1438 1436 1434 1433 1431 1430 1429 1428 1428 1427 1428 1428 1428 1428 1428
1517 1516 1515 1514 1514 1512 1510 1508 1506 1503 1501 1498 1495 1491 1488 1484 1480 1477 1473 1469 1465 1461 1457 1453 1450 1446 1443 1441 1438 1436 1434 1432 1431 1430 1429 1428 1427 1426 1426 1425 1424 1424 1425 1425
1514 1514 1513 1512 1510 1509 1507 1505 1502 1500 1497 1494 1491 1488 1484 1481 1477 1473 1470 1466 1462 1458 1454 1451 1447 1443 1441 1438 1436 1434 1432 1430 1429 1428 1427 1426 1426 1425 1424 1423 1423 1422 1422 1422
1511 1511 1510 1509 1507 1506 1504 1502 1499 1496 1494 1491 1488 1485 1482 1478 1474 1471 1467 1464 1459 1455 1451 1448 1444 1441 1439 1436 1434 1432 1430 1428 1427 1426 1425 1424 1423 1423 1422 1422 1421 1420 1420 1420
1509 1508 1507 1506 1504 1503 1501 1499 1497 1494 1491 1488 1485 1482 1479 1475 1471 1468 1464 1461 1457 1453 1450 1446 1442 1439 1437 1434 1432 1430 1428 1426 1425 1424 1423 1422 1421 1421 1421 1420 1420 1419 1419 1419
1507 1506 1505 1503 1502 1500 1498 1496 1494 1491 1488 1486 1483 1479 1476 1473 1469 1465 1462 1458 1455 1451 1447 1444 1440 1437 1434 1432 1430 1428 1426 1424 1423 1422 1421 1420 1419 1419 1419 1418 1418 1418 1418 1418
1504 1503 1502 1500 1499 1497 1495 1493 1491 1488 1486 1483 1480 1477 1474 1471 1467 1464 1460 1456 1452 1448 1445 1442 1439 1435 1432 1430 1428 1426 1424 1422 1421 1420 1419 1418 1418 1417 1417 1417 1417 1416 1416 1416
1501 1500 1499 1497 1496 1494 1492 1490 1488 1485 1483 1480 1477 1474 1471 1468 1465 1462 1458 1455 1452 1448 1444 1441 1437 1434 1431 1428 1426 1424 1423 1421 1419 1418 1417 1416 1416 1415 1415 1415 1415 1414 1414 1415
1498 1497 1496 1495 1493 1492 1490 1487 1485 1483 1480 1478 1475 1472 1469 1466 1463 1460 1456 1452 1450 1447 1443 1440 1436 1433 1430 1428 1426 1423 1421 1420 1418 1417 1416 1415 1414 1414 1413 1413 1413 1412 1412 1413
1496 1494 1493 1492 1490 1488 1487 1485 1482 1480 1477 1475 1472 1469 1466 1463 1461 1458 1455 1452 1448 1445 1442 1438 1435 1432 1429 1427 1424 1422 1420 1418 1417 1416 1414 1414 1413 1412 1412 1411 1411 1411 1411 1411
1493 1492 1490 1489 1487 1485 1483 1482 1479 1477 1475 1472 1470 1467 1464 1462 1459 1456 1452 1450 1447 1443 1440 1437 1434 1431 1428 1425 1423 1421 1419 1417 1416 1415 1414 1413 1412 1411 1411 1410 1410 1409 1409 1409
1490 1489 1487 1486 1484 1482 1480 1478 1477 1474 1472 1470 1468 1465 1462 1459 1456 1454 1451 1448 1445 1442 1438 1435 1432 1429 1427 1424 1422 1420 1418 1416 1415 1414 1412 1412 1411 1410 1410 1409 1408 1408 1408 1408
1488 1486 1485 1483 1481 1479 1477 1475 1473 1471 1469 1467 1465 1463 1460 1457 1454 1451 1448 1445 1442 1439 1436 1433 1431 1428 1425 1422 1420 1418 1417 1415 1414 1413 1411 1410 1410 1409 1408 1408 1407 1407 1407 1407
1485 1483 1482 1480 1479 1477 1475 1473 1471 1469 1466 1464 1462 1460 1457 1455 1452 1449 1446 1443 1440 1437 1434 1431 1429 1426 1423 1421 1419 1417 1416 1414 1413 1412 1410 1409 1408 1408 1407 1406 1406 1406 1405 1405
1482 1481 1479 1478 1476 1474 1472 1470 1468 1466 1464 1462 1459 1457 1454 1452 1449 1446 1444 1441 1438 1435 1432 1430 1427 1425 1422 1420 1418 1416 1415 1413 1412 1410 1409 1408 1407 1406 1406 1405 1404 1404 1403 1403